Date String (YYYY-MM-DD hh:mm:ss) UTC,Instrument flags,Ambient pressure (hPa),Sample flow (lpm),Bypass flow (lpm),Sample temperature (°C),Ambient temperature (°C),ASC tube jacket temperature (°C),LED temperature (°C),Box temperature (°C),Sample RH (%),Span deviation,Mass concentration (μg/m³),Mass concentration (μg/m³),Mass concentration (μg/m³)
DateTimeUTC,F1_M11,P_M11,Q1_M11,Q2_M11,T1_M11,T2_M11,T3_M11,T4_M11,T5_M11,U1_M11,ZSPAN_M11,X0_M11,X2_M11,X1_M11
2021-11-13 04:00:00,,0830.3,5.02,0.00,26.9,26.0,00.0,35.9,28.7,12.2,0000.0,0011.93,0003.23,0001.52
2021-11-13 04:01:00,,0830.3,5.00,0.00,26.9,26.0,00.0,35.9,28.7,11.7,0000.0,0012.67,0003.27,0001.52
2021-11-13 04:02:00,,0830.3,5.00,0.00,26.9,26.0,00.0,35.9,28.7,11.6,0000.0,0012.92,0003.27,0001.53
2021-11-13 04:03:00,,0830.3,5.00,0.00,26.9,26.0,00.0,35.9,28.7,11.9,0000.0,0013.77,0003.24,0001.54
2021-11-13 04:04:00,,0830.3,5.00,0.00,26.9,26.0,00.0,35.9,28.7,12.3,0000.0,0013.23,0003.20,0001.53
2021-11-13 04:05:00,,0830.2,4.99,0.00,26.9,26.0,00.0,35.9,28.7,12.5,0000.0,0012.44,0003.12,0001.49
2021-11-13 04:06:00,,0830.2,5.00,0.00,26.9,26.0,00.0,35.9,28.7,12.6,0000.0,0012.17,0002.94,0001.43
2021-11-13 04:07:00,,0830.2,5.00,0.00,26.9,26.0,00.0,35.9,28.7,12.4,0000.0,0011.98,0002.72,0001.36
2021-11-13 04:08:00,,0830.2,5.00,0.00,26.9,26.0,00.0,35.9,28.7,12.4,0000.0,0011.35,0002.57,0001.30
2021-11-13 04:09:00,,0830.2,5.00,0.00,26.9,26.0,00.0,35.9,28.7,12.5,0000.0,0010.24,0002.44,0001.27
2021-11-13 04:10:00,,0830.2,5.01,0.00,26.9,26.0,00.0,35.9,28.7,12.2,0000.0,0009.75,0002.36,0001.25
2021-11-13 04:11:00,,0830.2,5.00,0.00,26.9,26.0,00.0,35.9,28.6,12.4,0000.0,0009.58,0002.29,0001.24
2021-11-13 04:12:00,,0830.2,5.00,0.00,26.9,26.0,00.0,35.9,28.6,12.3,0000.0,0008.95,0002.16,0001.21
2021-11-13 04:13:00,,0830.1,5.00,0.00,26.9,26.0,00.0,35.9,28.6,12.4,0000.0,0008.85,0002.09,0001.17
2021-11-13 04:14:00,,0830.1,5.00,0.00,26.9,25.9,00.0,35.9,28.6,12.9,0000.0,0007.76,0002.01,0001.11
2021-11-13 04:15:00,,0830.1,4.99,0.00,26.9,25.9,00.0,35.9,28.6,12.9,0000.0,0009.41,0002.00,0001.09
2021-11-13 04:16:00,,0830.1,5.00,0.00,26.9,25.9,00.0,35.9,28.6,12.9,0000.0,0009.50,0001.93,0001.05
2021-11-13 04:17:00,,0830.1,5.01,0.00,26.8,25.9,00.0,35.9,28.6,13.2,0000.0,0009.21,0001.92,0001.05
2021-11-13 04:18:00,,0830.1,5.01,0.00,26.8,25.9,00.0,35.9,28.6,13.3,0000.0,0008.36,0001.85,0001.01
2021-11-13 04:19:00,,0830.1,5.00,0.00,26.8,25.9,00.0,35.9,28.5,13.5,0000.0,0007.92,0001.70,0000.95
2021-11-13 04:20:00,,0830.1,4.99,0.00,26.8,25.9,00.0,35.8,28.5,13.4,0000.0,0007.95,0001.58,0000.89
2021-11-13 04:21:00,,0830.1,5.00,0.00,26.8,25.8,00.0,35.8,28.4,13.5,0000.0,0008.07,0001.43,0000.81
2021-11-13 04:22:00,,0830.1,5.00,0.00,26.8,25.8,00.0,35.8,28.4,13.6,0000.0,0007.73,0001.28,0000.74
2021-11-13 04:23:00,,0830.1,4.99,0.00,26.7,25.8,00.0,35.8,28.4,13.6,0000.0,0007.34,0001.17,0000.69
2021-11-13 04:24:00,,0830.1,4.99,0.00,26.7,25.7,00.0,35.8,28.4,13.7,0000.0,0006.79,0001.02,0000.62
2021-11-13 04:25:00,,0830.1,5.00,0.00,26.7,25.7,00.0,35.8,28.4,13.7,0000.0,0006.47,0000.94,0000.59
2021-11-13 04:26:00,,0830.1,5.00,0.00,26.7,25.7,00.0,35.8,28.3,13.8,0000.0,0003.28,0000.86,0000.54
2021-11-13 04:27:00,,0830.1,5.00,0.00,26.6,25.7,00.0,35.8,28.3,13.8,0000.0,0002.58,0000.77,0000.50
2021-11-13 04:28:00,,0830.0,4.99,0.00,26.7,25.7,00.0,35.8,28.3,13.8,0000.0,0002.35,0000.69,0000.47
2021-11-13 04:29:00,,0830.0,4.98,0.00,26.6,25.7,00.0,35.7,28.3,13.8,0000.0,0002.43,0000.70,0000.45
2021-11-13 04:30:00,,0830.0,5.01,0.00,26.6,25.7,00.0,35.7,28.4,13.8,0000.0,0002.39,0000.70,0000.45
2021-11-13 04:31:00,,0830.0,5.00,0.00,26.6,25.7,00.0,35.7,28.3,13.8,0000.0,0002.13,0000.68,0000.45
2021-11-13 04:32:00,,0829.9,5.00,0.00,26.6,25.7,00.0,35.7,28.3,13.8,0000.0,0001.47,0000.65,0000.45
2021-11-13 04:33:00,,0829.9,5.01,0.00,26.6,25.7,00.0,35.7,28.3,13.7,0000.0,0001.23,0000.65,0000.45
2021-11-13 04:34:00,,0830.0,5.00,0.00,26.6,25.7,00.0,35.7,28.3,13.7,0000.0,0001.21,0000.63,0000.45
2021-11-13 04:35:00,,0829.9,5.00,0.00,26.6,25.7,00.0,35.7,28.3,13.8,0000.0,0001.22,0000.66,0000.45
2021-11-13 04:36:00,,0829.8,5.01,0.00,26.6,25.7,00.0,35.7,28.3,13.8,0000.0,0001.21,0000.66,0000.45
2021-11-13 04:37:00,,0829.9,4.99,0.00,26.6,25.7,00.0,35.7,28.3,13.8,0000.0,0001.13,0000.63,0000.45
2021-11-13 04:38:00,,0829.9,5.01,0.00,26.6,25.7,00.0,35.7,28.3,13.8,0000.0,0001.19,0000.64,0000.45
2021-11-13 04:39:00,,0829.9,5.00,0.00,26.6,25.7,00.0,35.7,28.3,13.8,0000.0,0001.16,0000.63,0000.44
2021-11-13 04:40:00,,0829.9,5.00,0.00,26.6,25.7,00.0,35.7,28.3,13.8,0000.0,0001.10,0000.63,0000.45
2021-11-13 04:41:00,,0829.9,5.02,0.00,26.6,25.7,00.0,35.7,28.3,13.8,0000.0,0001.03,0000.62,0000.44
2021-11-13 04:42:00,,0829.9,5.01,0.00,26.6,25.7,00.0,35.7,28.3,13.8,0000.0,0001.19,0000.63,0000.44
2021-11-13 04:43:00,,0829.8,5.00,0.00,26.6,25.7,00.0,35.7,28.3,13.8,0000.0,0003.13,0000.68,0000.44
2021-11-13 04:44:00,,0829.8,4.98,0.00,26.6,25.7,00.0,35.7,28.3,13.9,0000.0,0003.19,0000.71,0000.44
2021-11-13 04:45:00,,0829.8,4.99,0.00,26.6,25.7,00.0,35.7,28.3,13.9,0000.0,0003.15,0000.69,0000.44
2021-11-13 04:46:00,,0829.8,5.01,0.00,26.6,25.7,00.0,35.7,28.3,13.9,0000.0,0003.06,0000.66,0000.44
2021-11-13 04:47:00,,0829.8,5.00,0.00,26.6,25.7,00.0,35.6,28.3,13.9,0000.0,0003.01,0000.63,0000.44
2021-11-13 04:48:00,,0829.7,4.99,0.00,26.6,25.7,00.0,35.6,28.3,13.9,0000.0,0003.01,0000.63,0000.44
2021-11-13 04:49:00,,0829.7,5.01,0.00,26.6,25.7,00.0,35.6,28.3,14.0,0000.0,0003.75,0000.64,0000.44
2021-11-13 04:50:00,,0829.8,5.00,0.00,26.6,25.7,00.0,35.6,28.3,14.0,0000.0,0004.26,0000.63,0000.43
2021-11-13 04:51:00,,0829.7,4.99,0.00,26.6,25.7,00.0,35.6,28.3,14.0,0000.0,0004.29,0000.63,0000.42
2021-11-13 04:52:00,,0829.8,5.01,0.00,26.6,25.7,00.0,35.6,28.3,14.0,0000.0,0004.22,0000.60,0000.42
2021-11-13 04:53:00,,0829.8,5.00,0.00,26.6,25.7,00.0,35.6,28.3,14.0,0000.0,0004.23,0000.60,0000.42
2021-11-13 04:54:00,,0829.7,4.99,0.00,26.6,25.7,00.0,35.6,28.3,14.0,0000.0,0003.37,0000.60,0000.42
2021-11-13 04:55:00,,0829.7,5.01,0.00,26.6,25.7,00.0,35.6,28.3,14.0,0000.0,0002.18,0000.55,0000.41
2021-11-13 04:56:00,,0829.7,5.00,0.00,26.6,25.7,00.0,35.6,28.3,14.1,0000.0,0002.20,0000.54,0000.40
2021-11-13 04:57:00,,0829.7,4.99,0.00,26.6,25.7,00.0,35.6,28.3,14.1,0000.0,0002.26,0000.56,0000.40
2021-11-13 04:58:00,,0829.7,4.99,0.00,26.6,25.7,00.0,35.6,28.3,14.2,0000.0,0002.38,0000.56,0000.40
2021-11-13 04:59:00,,0829.7,5.01,0.00,26.6,25.7,00.0,35.6,28.3,14.2,0000.0,0002.49,0000.56,0000.38
